Nuiqsut, AK

10:02 AM AKDT on July 24, 2017 (GMT -0800)
Nuiqsut

Weather History for PAQT - December, 2012

Change the Weather History Date:

Friday, December 21, 2012

  Actual Average (PAKU) Record (PAKU)
Temperature  
Mean Temperature -18 °F -  
Max Temperature -11 °F 0 °F 86 °F (2001)
Min Temperature -24 °F -9 °F -41 °F (2007)
Degree Days  
Heating Degree Days 82    
Moisture  
Dew Point -21 °F    
Average Humidity 76    
Maximum Humidity 79    
Minimum Humidity 70    
Precipitation  
Precipitation 0.00 in - - ()
Sea Level Pressure  
Sea Level Pressure 30.48 in    
Wind  
Wind Speed 7 mph (ENE)    
Max Wind Speed 10 mph    
Max Gust Speed -    
Visibility 10 miles    
Events      
Averages and records for this station are not official NWS values.
T = Trace of Precipitation, MM = Missing Value Source: NWS Daily Summary

Daily Weather History Graph

Daily Weather History Graph

Search for Another Location

Airport or City:

Trip Planner

Search our weather history database for the weather conditions in past years. The results will help you decide how hot, cold, wet, or windy it might be!

Date:

Astronomy

Dec. 31, 1969 Rise Set
Actual Time Sun does not set Sun does not set
Civil Twilight 11:03 AM AKST 3:01 PM AKST
Nautical Twilight 9:11 AM AKST 4:53 PM AKST
Astronomical Twilight 7:50 AM AKST 6:14 PM AKST
Moon 12:05 PM AKST (12/21) 3:36 AM AKST (12/21)
Length of Visible Light 3h 58m
Length of Day
0h 00m
Waxing Gibbous, 66% of the Moon is Illuminated
Dec 21
Waxing Gibbous
Dec 28
Full
Jan 4
Last Quarter
Jan 11
New
Jan 18
First Quarter

Hourly Weather History & Observations

Time (AKST) Temp. Windchill Dew Point Humidity Pressure Visibility Wind Dir Wind Speed Gust Speed Precip Events Conditions
12:53 AM -24.0 °F -40.0 °F -29.9 °F 74% 30.60 in 10.0 mi East 5.8 mph - N/A   Clear
1:53 AM -20.9 °F -38.1 °F -27.9 °F 70% 30.59 in 10.0 mi East 6.9 mph - N/A   Clear
3:53 AM -20.0 °F -38.6 °F -26.0 °F 74% 30.56 in 10.0 mi East 8.1 mph - N/A   Clear
4:53 AM -18.9 °F -38.6 °F -24.0 °F 78% 30.55 in 10.0 mi East 9.2 mph - N/A   Clear
5:53 AM -17.0 °F -31.7 °F -23.1 °F 74% 30.54 in 10.0 mi East 5.8 mph - N/A   Clear
6:53 AM -16.1 °F -30.6 °F -23.1 °F 71% 30.53 in 10.0 mi ENE 5.8 mph - N/A   Clear
7:53 AM -16.1 °F -32.3 °F -22.0 °F 74% 30.52 in 10.0 mi ENE 6.9 mph - N/A   Partly Cloudy
8:53 AM -15.0 °F -32.4 °F -20.0 °F 78% 30.50 in 10.0 mi ENE 8.1 mph - N/A   Clear
9:53 AM -13.0 °F - -18.0 °F 78% 30.50 in 10.0 mi Calm Calm - N/A   Clear
10:53 AM -14.1 °F -29.9 °F -18.9 °F 79% 30.50 in 10.0 mi East 6.9 mph - N/A   Unknown
11:53 AM -15.0 °F -33.7 °F -20.9 °F 75% 30.48 in 10.0 mi East 9.2 mph - N/A   Clear
12:53 PM -15.0 °F -32.4 °F -20.0 °F 78% 30.48 in 10.0 mi East 8.1 mph - N/A   Clear
1:53 PM -13.0 °F -27.0 °F -18.9 °F 75% 30.47 in 10.0 mi East 5.8 mph - N/A   Clear
2:53 PM -14.1 °F -32.6 °F -18.9 °F 79% 30.45 in 10.0 mi East 9.2 mph - N/A   Clear
3:53 PM -11.9 °F -23.8 °F -17.0 °F 78% 30.45 in 10.0 mi ENE 4.6 mph - N/A   Clear
4:53 PM -11.9 °F -27.3 °F -18.0 °F 74% 30.43 in 10.0 mi ENE 6.9 mph - N/A   Clear
5:53 PM -13.0 °F -32.4 °F -18.9 °F 75% 30.42 in 10.0 mi ENE 10.4 mph - N/A   Clear
6:53 PM -15.0 °F -33.7 °F -20.0 °F 78% 30.43 in 10.0 mi ENE 9.2 mph - N/A   Clear
7:53 PM -14.1 °F -32.6 °F -18.9 °F 79% 30.42 in 10.0 mi ENE 9.2 mph - N/A   Clear
8:53 PM -16.1 °F -35.0 °F -20.9 °F 79% 30.41 in 10.0 mi ENE 9.2 mph - N/A   Clear
9:53 PM -16.1 °F -33.7 °F -20.9 °F 79% 30.40 in 10.0 mi ENE 8.1 mph - N/A   Clear
10:53 PM -15.0 °F -32.4 °F -20.9 °F 75% 30.40 in 10.0 mi ENE 8.1 mph - N/A   Clear
11:53 PM -15.0 °F -33.7 °F -20.0 °F 78% 30.39 in 10.0 mi East 9.2 mph - N/A   Clear